Location: Asheville, NC
(35.6000°N, 82.5500°W)
Time: 13:50:51
(UTC-04:00)

Vanguard 1 - Pass Details

Date: 09 March 2018
Orbit: 650 x 3833 km, 34.3° (Epoch: 17 June)

Event Time Altitude Azimuth Distance (km) Brightness Sun altitude
Rises 12:34:00 0° 264° (W) 7,970 14.7 50.1°
Reaches altitude 10° 12:39:33 10° 264° (W) 6,911 14.5 50.1°
Maximum altitude 13:02:19 86° 180° (S) 2,962 13.5 49.8°
Drops below altitude 10° 13:15:49 10° 93° (E) 4,424 13.4 49.3°
Sets 13:18:32 0° 93° (E) 5,099 13.6 49.1°
